STARLINK-35453 (65878 NORAD) Tracking and Keplerian Element Data

This shows tracking and keplerian element data for the satellite.

Feedback or suggestion? Click here.




ElementValue
Catalog65878
NameSTARLINK-35453
Epoch Orbit1202
Epoch Day354.14905763
Epoch Year2025
RAAN303.9117
Inclination53.161
Eccentricity0.0001181
Argument of Perigee83.9923
Mean Anonmoly276.1212
Mean Motion15.30250949
Decay Rate0.0005701
L11 65878U 25223AA 25354.14905763 .00057010 00000+0 19192-2 0 9998
L22 65878 53.1610 303.9117 0001181 83.9923 276.1212 15.30250949 12025



Live tracking and technical data element details for STARLINK-35453 (NORAD 65878). STARLINK-35453 can be tracked NOW for your location showing map with azimuth and elevation plus other details from your city location.







IsCatalogInMostPopularTable: catalog: 65878, numindb: 12
Update: records affected: 1



GetName: 65878 STARLINK-35453

Hit Count: updated at: Thu, 16 Apr 2026 05:47:23 GMT